Fort Collins, CO

10:49 PM MST on November 17, 2019 (GMT -0700)
Fort Collins-Loveland Municipal

Weather History for KFNL - September, 2019

Change the Weather History Date:

Friday, September 20, 2019

  Actual Average Record
Temperature  
Mean Temperature 69 °F -  
Max Temperature 86 °F - 91 °F (2010)
Min Temperature 51 °F - 39 °F (2006)
Degree Days  
Heating Degree Days 0    
Month to date heating degree days 5  
Cooling Degree Days 4    
Month to date cooling degree days 118  
Growing Degree Days 19 (Base 50)    
Moisture  
Dew Point 45 °F    
Average Humidity 57    
Maximum Humidity 96    
Minimum Humidity 17    
Precipitation  
Precipitation 0.00 in - 8.76 in (2005)
Snow  
Snow 0.00 in - - ()
Snow Depth 0.00 in    
Sea Level Pressure  
Sea Level Pressure 29.66 in    
Wind  
Wind Speed 6 mph (NNE)    
Max Wind Speed 14 mph    
Max Gust Speed -    
Visibility 8 miles    
Events Thunderstorm    
T = Trace of Precipitation, MM = Missing Value Source: NWS Daily Summary

Daily Weather History Graph

Daily Weather History Graph

Search for Another Location

Airport or City:

Astronomy

Sep. 20, 2019 Rise Set
Actual Time 6:45 AM MDT 7:00 PM MDT
Civil Twilight 6:18 AM MDT 7:28 PM MDT
Nautical Twilight 5:46 AM MDT 7:59 PM MDT
Astronomical Twilight 5:13 AM MDT 8:32 PM MDT
Moon 10:51 PM MDT (9/20) 12:54 PM MDT (9/20)
Length of Visible Light 13h 09m
Length of Day
12h 15m
Waning Gibbous, 64% of the Moon is Illuminated
Sep 20
Waning Gibbous
Sep 21
Last Quarter
Sep 28
New
Oct 5
First Quarter
Oct 13
Full

Hourly Weather History & Observations

Time (MDT) Temp. Dew Point Humidity Pressure Visibility Wind Dir Wind Speed Gust Speed Precip Events Conditions
12:56 AM 64.0 °F 53.1 °F 67% 29.68 in 10.0 mi SE 4.6 mph - N/A   Clear
1:56 AM 61.0 °F 52.0 °F 72% 29.68 in 10.0 mi Calm Calm - N/A   Clear
2:56 AM 57.9 °F 51.1 °F 78% 29.68 in 10.0 mi North 4.6 mph - N/A   Clear
3:56 AM 55.0 °F 50.0 °F 83% 29.66 in 10.0 mi North 10.4 mph - N/A   Clear
4:56 AM 55.0 °F 51.1 °F 86% 29.67 in 10.0 mi North 6.9 mph - N/A   Clear
5:56 AM 54.0 °F 50.0 °F 86% 29.68 in 10.0 mi NNE 6.9 mph - N/A   Clear
6:56 AM 52.0 °F 50.0 °F 93% 29.70 in 10.0 mi NNW 4.6 mph - N/A   Clear
7:56 AM 57.0 °F 51.1 °F 81% 29.70 in 10.0 mi North 8.1 mph - N/A   Clear
8:56 AM 61.0 °F 53.1 °F 75% 29.70 in 10.0 mi NNE 6.9 mph - N/A   Clear
9:56 AM 64.9 °F 54.0 °F 68% 29.69 in 10.0 mi North 8.1 mph - N/A   Clear
10:56 AM 69.1 °F 55.0 °F 61% 29.68 in 10.0 mi Variable 4.6 mph - N/A   Clear
11:56 AM 73.9 °F 53.1 °F 48% 29.64 in 10.0 mi Variable 4.6 mph - N/A   Clear
12:56 PM 80.1 °F 50.0 °F 35% 29.61 in 7.0 mi Variable 4.6 mph - N/A   Clear
1:28 PM 82.4 °F 48.2 °F 30% 29.78 in 1.8 mi Variable 5.8 mph - N/A   Haze
1:35 PM 82.4 °F 48.2 °F 30% 29.78 in 3.0 mi Variable 4.6 mph - N/A   Haze
1:56 PM 82.0 °F 46.9 °F 29% 29.58 in 2.0 mi SE 5.8 mph - N/A   Haze
2:24 PM 84.2 °F 42.8 °F 23% 29.75 in 1.5 mi SE 5.8 mph - N/A   Haze
2:35 PM 84.2 °F 39.2 °F 20% 29.75 in 3.0 mi Variable 5.8 mph - N/A   Haze
2:56 PM 84.9 °F 37.0 °F 18% 29.55 in 7.0 mi SE 8.1 mph - N/A   Clear
3:56 PM 86.0 °F 42.1 °F 21% 29.53 in 10.0 mi NNE 13.8 mph - N/A   Clear
4:56 PM 82.9 °F 39.9 °F 22% 29.55 in 10.0 mi East 11.5 mph - N/A   Clear
5:56 PM 81.0 °F 32.0 °F 17% 29.53 in 10.0 mi East 8.1 mph - N/A   Clear
6:56 PM 73.0 °F 37.9 °F 28% 29.58 in 10.0 mi North 6.9 mph - N/A   Clear
7:56 PM 70.0 °F 37.9 °F 31% 29.60 in 10.0 mi North 11.5 mph - N/A   Clear
8:40 PM 69.8 °F 39.2 °F 33% 29.78 in 10.0 mi North 8.1 mph - N/A Thunderstorm Clear
8:56 PM 70.0 °F 39.9 °F 33% 29.63 in 10.0 mi NNE 8.1 mph - N/A   Clear
9:56 PM 64.9 °F 32.0 °F 29% 29.68 in 10.0 mi North 8.1 mph - N/A   Clear
10:56 PM 66.0 °F 28.9 °F 25% 29.69 in 10.0 mi NE 4.6 mph - N/A   Clear
11:56 PM 63.0 °F 28.9 °F 28% 29.71 in 10.0 mi ENE 5.8 mph - N/A   Clear